GW4740 Weather Reports


time (UTC)temp
C
wind
direction
speed
KPH
gust
KPH
rain 1hr
cm
rain 24hr
cm
rain mn
cm
humidity
%
barometer
mb
20260510191525 18 70 17.7 30.6 0.00 0.00 0.00 51 1023.1
20260510190026 17 44 14.5 25.7 0.00 0.00 0.00 52 1023.3
20260510184514 17 29 19.3 32.2 0.00 0.00 0.00 53 1023.2
20260510183017 16 23 19.3 32.2 0.00 0.00 0.00 54 1023.3
20260510181524 16 50 14.5 29.0 0.00 0.00 0.00 53 1023.2
20260510180026 16 17 16.1 25.7 0.00 0.00 0.00 53 1023.2
20260510174527 15 13 12.9 30.6 0.00 0.00 0.00 56 1023.4
20260510173017 15 42 11.3 30.6 0.00 0.00 0.00 56 1023.2
20260510171522 15 58 4.8 17.7 0.00 0.00 0.00 55 1023.1
20260510170025 15 360 8.0 17.7 0.00 0.00 0.00 53 1023.4
20260510164535 15 6 17.7 40.2 0.00 0.00 0.00 54 1022.4
20260510163026 15 2 27.4 40.2 0.00 0.00 0.00 53 1021.8
20260510161520 15 4 20.9 33.8 0.00 0.00 0.00 54 1021.7
20260510160026 16 5 22.5 37.0 0.00 0.00 0.00 54 1021.7
20260510154532 16 37 20.9 37.0 0.00 0.00 0.00 52 1020.9
20260510153029 16 31 22.5 33.8 0.00 0.00 0.00 52 1021.1
20260510151518 16 40 20.9 40.2 0.00 0.00 0.00 51 1021.4
20260510150023 16 359 22.5 35.4 0.00 0.00 0.00 53 1021.5
20260510144508 16 5 19.3 37.0 0.00 0.00 0.00 54 1021.1
20260510143012 16 342 20.9 38.6 0.00 0.00 0.00 54 1021.0
20260510141517 16 22 22.5 38.6 0.00 0.00 0.00 55 1020.6
20260510140022 15 333 19.3 43.5 0.00 0.00 0.00 56 1020.5
20260510134505 15 5 20.9 37.0 0.00 0.00 0.00 55 1020.1
20260510133009 15 8 20.9 37.0 0.00 0.00 0.00 54 1019.4
20260510131517 15 31 14.5 37.0 0.00 0.00 0.00 53 1019.1
20260510130018 15 2 17.7 37.0 0.00 0.00 0.00 54 1018.8
20260510124526 15 4 19.3 38.6 0.00 0.00 0.00 53 1018.5
20260510123006 15 360 16.1 33.8 0.00 0.00 0.00 52 1018.3
20260510121513 16 360 12.9 35.4 0.00 0.00 0.00 51 1017.9
20260510120027 16 360 19.3 32.2 0.00 0.00 0.00 51 1018.0
20260510114522 16 1 27.4 40.2 0.00 0.00 0.00 50 1017.7
20260510113026 17 360 11.3 29.0 0.00 0.00 0.00 48 1017.5
20260510111512 17 6 19.3 37.0 0.00 0.00 0.00 48 1016.4
20260510110023 18 15 24.1 38.6 0.00 0.00 0.00 44 1015.0
20260510104520 18 20 25.7 41.8 0.00 0.00 0.00 37 1014.2
20260510103023 20 46 17.7 33.8 0.00 0.00 0.00 33 1014.2
20260510101526 20 20 14.5 24.1 0.00 0.00 0.00 30 1014.0
20260510100014 21 10 6.4 14.5 0.00 0.00 0.00 29 1013.4
20260510094525 20 1 4.8 14.5 0.00 0.00 0.00 29 1013.1
20260510093024 20 325 3.2 4.8 0.00 0.00 0.00 28 1012.9
20260510091527 20 158 3.2 4.8 0.00 0.00 0.00 26 1012.7
20260510090028 21 335 0.0 6.4 0.00 0.00 0.00 25 1012.7
20260510084514 21 330 4.8 11.3 0.00 0.00 0.00 25 1012.5
20260510083020 21 35 1.6 8.0 0.00 0.00 0.00 24 1012.1
20260510081527 21 359 4.8 9.7 0.00 0.00 0.00 23 1012.2
20260510080029 22 6 6.4 14.5 0.00 0.00 0.00 22 1012.1
20260510074533 22 15 4.8 11.3 0.00 0.00 0.00 22 1011.8
20260510073016 23 5 6.4 11.3 0.00 0.00 0.00 21 1012.1
20260510071503 23 354 4.8 11.3 0.00 0.00 0.00 20 1012.4
20260510070007 24 335 0.0 6.4 0.00 0.00 0.00 19 1012.2
20260510064510 25 8 8.0 14.5 0.00 0.00 0.00 18 1012.3
20260510063019 24 331 4.8 11.3 0.00 0.00 0.00 18 1012.1
20260510061505 25 293 3.2 4.8 0.00 0.00 0.00 18 1012.5
20260510060018 25 314 1.6 12.9 0.00 0.00 0.00 17 1012.2
20260510054512 24 355 4.8 9.7 0.00 0.00 0.00 16 1011.8
20260510053016 23 333 6.4 11.3 0.00 0.00 0.00 15 1011.6
20260510051521 23 260 8.0 14.5 0.00 0.00 0.00 16 1011.2
20260510050005 22 242 3.2 9.7 0.00 0.00 0.00 17 1011.0
20260510044510 21 257 3.2 9.7 0.00 0.00 0.00 19 1011.0
20260510043016 22 230 3.2 4.8 0.00 0.00 0.00 23 1010.9
20260510041520 22 313 0.0 3.2 0.00 0.00 0.00 22 1010.5
20260510040025 23 311 0.0 4.8 0.00 0.00 0.00 20 1010.3
20260510034508 23 151 0.0 3.2 0.00 0.00 0.00 21 1010.0
20260510033013 24 150 0.0 3.2 0.00 0.00 0.00 20 1009.8
20260510031518 25 151 0.0 0.0 0.00 0.00 0.00 17 1009.8
20260510030020 25 151 0.0 3.2 0.00 0.00 0.00 16 1009.6
20260510024524 26 151 0.0 3.2 0.00 0.00 0.00 15 1009.4
20260510023027 26 140 1.6 6.4 0.00 0.00 0.00 15 1009.1
20260510021518 27 182 4.8 11.3 0.00 0.00 0.00 13 1009.0
20260510020020 28 193 3.2 6.4 0.00 0.00 0.00 12 1008.9
20260510014527 29 195 0.0 4.8 0.00 0.00 0.00 11 1008.8
20260510013027 30 242 1.6 9.7 0.00 0.00 0.00 10 1008.6
20260510011516 31 254 4.8 12.9 0.00 0.00 0.00 8 1008.5
20260510010025 32 255 9.7 20.9 0.00 0.00 0.00 8 1008.3
20260510004524 32 300 12.9 22.5 0.00 0.00 0.00 7 1008.2
20260510003028 33 289 9.7 25.7 0.00 0.00 0.00 7 1008.3
20260510001526 33 271 8.0 22.5 0.00 0.00 0.00 7 1008.3
20260510000018 33 306 11.3 24.1 0.00 0.00 0.00 1008.3
20260509234524 33 281 9.7 17.7 0.00 0.00 0.00 8 1008.2
20260509233029 32 255 4.8 24.1 0.00 0.00 0.00 11 1008.4
20260509231528 32 172 14.5 25.7 0.00 0.00 0.00 10 1008.3
20260509230016 32 232 12.9 22.5 0.00 0.00 0.00 11 1008.5
20260509224521 32 191 6.4 14.5 0.00 0.00 0.00 11 1008.5
20260509223028 32 205 8.0 16.1 0.00 0.00 0.00 11 1008.6
20260509221532 32 230 3.2 8.0 0.00 0.00 0.00 10 1008.8
20260509220025 32 326 9.7 19.3 0.00 0.00 0.00 9 1008.9
20260509214518 32 237 9.7 19.3 0.00 0.00 0.00 10 1009.2
20260509213024 33 243 14.5 22.5 0.00 0.00 0.00 9 1009.4
20260509211504 35 229 8.0 22.5 0.00 0.00 0.00 8 1009.5
20260509210015 34 271 8.0 29.0 0.00 0.00 0.00 9 1009.7
20260509204503 34 266 19.3 30.6 0.00 0.00 0.00 9 1010.1
20260509203006 34 219 3.2 12.9 0.00 0.00 0.00 10 1010.3
20260509201506 33 172 4.8 12.9 0.00 0.00 0.00 10 1010.6
20260509200011 32 352 1.6 16.1 0.00 0.00 0.00 10 1010.9
20260509194518 33 314 6.4 16.1 0.00 0.00 0.00 10 1011.1
20260509193002 33 286 6.4 14.5 0.00 0.00 0.00 11 1011.2